Printer-friendly version
Follow the MPC on Twitter Follow the MPC on Facebook The MPC blog
Minor Planet Center

MPEC 2007-M01 : 2007 LQ19

The following Minor Planet Electronic Circular may be linked-to from your own Web pages, but must not otherwise be redistributed electronically.

A form allowing access to any MPEC is at the bottom of this page.


Read MPEC 2007-L65 Read MPEC 2007-M02


M.P.E.C. 2007-M01                                Issued 2007 June 16, 02:10 UT

     The Minor Planet Electronic Circulars contain information on unusual
         minor planets and routine data on comets.  They are published
   on behalf of Commission 20 of the International Astronomical Union by the
          Minor Planet Center, Smithsonian Astrophysical Observatory,
                          Cambridge, MA 02138, U.S.A.

             Prepared using the Tamkin Foundation Computer Network

                              MPC@CFA.HARVARD.EDU
          URL http://www.cfa.harvard.edu/iau/mpc.html  ISSN 1523-6714

                                   2007 LQ19

Observations:
     K07L19Q* C2007 06 13.78733 00 42 34.27 +01 47 47.2          18.6 V EM001E12
     K07L19Q  C2007 06 13.79693 00 42 37.76 +01 47 46.2          19.2 V EM001E12
     K07L19Q  C2007 06 13.80660 00 42 41.14 +01 47 47.4          19.4 V EM001E12
     K07L19Q  C2007 06 13.81629 00 42 44.78 +01 47 46.8          19.2 V EM001E12
     K07L19Q  C2007 06 14.82452 00 48 50.31 +01 47 23.9          18.5 R EM001E12
     K07L19Q  C2007 06 14.83174 00 48 52.87 +01 47 23.8          19.2 R EM001E12
     K07L19Q  C2007 06 15.79260 00 54 37.723+01 47 00.77         19.0 R EM001E12

Observer details:
E12 Siding Spring Survey.  Observer R. H. McNaught.  Measurers E. C. Beshore,
    E. J. Christensen, G. J. Garradd, A. R. Gibbs, A. D. Grauer, R. E. Hill,
    R. A. Kowalski, S. M. Larson, R. H. McNaught.  0.5-m Uppsala Schmidt + CCD.

Orbital elements:
2007 LQ19                                           PHA, Earth MOID = 0.0055 AU
Epoch 2007 Apr. 10.0 TT = JDT 2454200.5                 MPC
M 336.72229              (2000.0)            P               Q
n   0.28013356     Peri.  208.48616     +0.72842157     +0.62975197
a   2.3132681      Node   109.86927     -0.56149279     +0.77440691
e   0.5826819      Incl.   16.67376     -0.39259121     +0.06088018
P   3.52           H   17.8           G   0.15           U   9
Residuals in seconds of arc
070613 E12  0.2-  0.0     070613 E12  1.1+  0.2+    070615 E12  0.0   0.0
070613 E12  0.3+  0.8-    070614 E12  0.0   0.1-
070613 E12  1.2-  0.6+    070614 E12  0.1-  0.0

Ephemeris:
2007 LQ19                a,e,i = 2.31, 0.58, 17                  q = 0.9654
Date    TT    R. A. (2000) Decl.     Delta      r     Elong.  Phase     V
2007 06 09    00 12.79   +01 48.8    0.549    1.013    74.1    74.5    19.1
2007 06 19    01 13.32   +01 45.5    0.582    0.981    69.8    76.4    19.3
2007 06 29    02 06.63   +01 42.9    0.633    0.966    67.1    75.8    19.4
2007 07 09    02 52.43   +01 45.1    0.695    0.970    65.9    73.2    19.5
2007 07 19    03 31.60   +01 50.6    0.760    0.991    66.0    69.5    19.6
2007 07 29    04 05.16   +01 55.8    0.822    1.029    67.2    65.4    19.7
2007 08 08    04 34.02   +01 57.1    0.876    1.080    69.3    61.4    19.9
2007 08 18    04 58.68   +01 51.7    0.920    1.142    72.3    57.6    20.0
2007 08 28    05 19.39   +01 39.0    0.952    1.211    76.2    54.1    20.1
2007 09 07    05 36.27   +01 19.3    0.972    1.286    81.0    50.7    20.2
2007 09 17    05 49.21   +00 54.2    0.980    1.364    86.8    47.4    20.2
2007 09 27    05 57.96   +00 26.7    0.978    1.444    93.6    43.8    20.2
2007 10 07    06 02.23   +00 00.5    0.969    1.525   101.6    39.9    20.2
2007 10 17    06 01.63   -00 19.4    0.956    1.606   110.7    35.5    20.2
2007 10 27    05 55.97   -00 26.6    0.945    1.687   120.9    30.4    20.1
2007 11 06    05 45.44   -00 14.8    0.941    1.766   132.1    24.6    20.0
2007 11 16    05 30.86   +00 21.5    0.952    1.845   143.7    18.5    20.0
2007 11 26    05 13.95   +01 24.2    0.984    1.921   154.3    12.9    19.9
2007 12 06    04 56.85   +02 49.8    1.041    1.996   160.3     9.6    20.0
2007 12 16    04 41.65   +04 31.2    1.125    2.070   157.7    10.4    20.3
2007 12 26    04 29.83   +06 20.3    1.236    2.141   149.3    13.6    20.7
2008 01 05    04 21.96   +08 10.1    1.370    2.211   139.3    16.9    21.1
2008 01 15    04 18.01   +09 56.6    1.524    2.279   129.4    19.5    21.5
2008 01 25    04 17.62   +11 37.3    1.694    2.345   119.9    21.4    21.8

                       (Last issue was M.P.E.C. 2007-L65)

Kyle E. Smalley              (C) Copyright 2007 MPC           M.P.E.C. 2007-M01

Read MPEC 2007-L65 Read MPEC 2007-M02


MPEC number:

Enter an MPEC number in one of the following forms:

  • 1997-B01 (the full form)
  • J97B01 (the packed version of the full form)
  • B01 (the abbreviated form)

Valid HTML 4.01!